     2.10           OBSERVATION DATA    G (GPS)             RINEX VERSION / TYPE
teqc 2002Apr3 Duncan Agnew 20050511 23:58:18UTC             PGM / RUN BY / DATE
OSX 5.3|G3|cc|OSX 5.3+|G3+                                  COMMENT
BIT 2 OF LLI FLAGS DATA COLLECTED UNDER A/S CONDITION       COMMENT
3-D rod [Desert Shores]                                     MARKER NAME
1722                                                        MARKER NUMBER
Dave Beltran Nolte Engineering                              OBSERVER / AGENCY
220331722 TRIMBLE 5700 NP 2.01 / SP 2.01                    REC # / TYPE / VERS
12582749 TRM41249.00                                        ANT # / TYPE
 -2340255.0000 -4789064.0000  3490751.0000                  APPROX POSITION XYZ
        2.0000        0.0000        0.0000                  ANTENNA: DELTA H/E/N
     1     1                                                WAVELENGTH FACT L1/2
     7    C1    L1    L2    P1    P2    S1    S2            # / TYPES OF OBSERV
SNR is mapped to RINEX snr flag value [1-9]                 COMMENT
L1: 3 -> 1; 8 -> 5; 40 -> 9                                 COMMENT
L2: 1 -> 1; 5 -> 5; 60 -> 9                                 COMMENT
  2004     6    28    19     6   30.0000000     GPS         TIME OF FIRST OBS
                                                            END OF HEADER
 04  6 28 19  6 30.0000000  0  7G 3G14G15G18G19G22G25
  23357417.5704     -14034.74259    -14826.42657                  23357418.0204
        45.7504         28.0004
  20381423.1174    -223664.92259   -170026.69958                  20381420.7934
        50.2504         42.5004
  20650556.6884     -70789.10259    -56485.92658                  20650555.0594
        51.7504         40.5004
  23540322.0234     -35103.70759    -30426.15257                  23540321.0864
        43.0004         26.0004
  22779476.5864    -229336.74259   -172950.85257                  22779473.9494
        47.2504         33.2504
  21571124.2584    -151372.81259   -115702.96157                  21571121.0394
        51.0004         39.0004
  23275110.0554    -635239.34059   -472834.40657                  23275110.2384
        44.7504         26.5004
 04  6 28 19  6 40.0000000  0  7G 3G14G15G18G19G22G25
  23357188.1094     -15238.60249    -15764.51247                  23357189.0634
        45.5004         28.5004
  20377627.0234    -243613.13349   -185570.76648                  20377624.8054
        50.5004         42.5004
  20649388.9534     -76925.47749    -61267.53548                  20649387.6454
        51.5004         41.0004
  23539713.8674     -38301.96549    -32918.33247                  23539712.2034
        43.2504         26.0004
  22775593.4924    -249737.93049   -188847.89547                  22775591.6214
        48.0004         33.7504
  21568529.0784    -165010.80949   -126329.98047                  21568525.7974
        51.0004         39.2504
  23264175.8364    -692698.54349   -517607.78147                  23264176.5084
        44.5004         27.0004
 04  6 28 19  6 50.0000000  0  7G 3G14G15G18G19G22G25
  23356966.8444     -16404.61349    -16673.12547                  23356967.1804
        45.0004         28.5004
  20373843.2114    -263498.89849   -201066.17648                  20373840.5864
        50.7504         42.5004
  20648234.5704     -82993.45349    -65995.83648                  20648233.3164
        51.7504         40.2504
  23539109.6804     -41476.16849    -35391.75046                  23539108.8754
        41.7504         25.2504
  22771725.5474    -270066.60249   -204688.44147                  22771723.2304
        47.5004         33.5004
  21565939.6094    -178619.70749   -136934.32847                  21565935.8164
        51.0004         38.7504
  23253247.0864    -750129.40649   -562359.07047                  23253247.7544
        45.5004         27.0004
 04  6 28 19  7  0.0000000  0  7G 3G14G15G18G19G22G25
  23356752.0474     -17532.96949    -17552.39147                  23356752.6294
        45.2504         28.0004
  20370070.5234    -283322.29349   -216512.97348                  20370068.6334
        50.0004         42.5004
  20647092.5944     -88993.11749    -70670.91848                  20647091.4024
        51.0004         40.2504
  23538509.9694     -44626.34049    -37846.44947                  23538509.4454
        43.0004         26.7504
  22767871.1724    -290322.90249   -220472.58247                  22767868.7774
        47.5004         33.5004
  21563355.2274    -192199.55549   -147516.02747                  21563351.8324
        51.2504         38.7504
  23242323.8754    -807531.99249   -607088.34047                  23242324.4494
        45.0004         27.0004
 04  6 28 19  7 10.0000000  0  7G 3G14G15G18G19G22G25
  23356544.3204     -18622.38749    -18401.31647                  23356545.6724
        44.5004         27.5004
  20366310.4694    -303082.07849   -231910.21148                  20366308.3134
        50.5004         42.0004
  20645964.2894     -94923.16449    -75291.74648                  20645962.8714
        51.0004         40.0004
  23537915.7584     -47751.09849    -40281.34447                  23537914.7544
        43.7504         26.0004
  22764030.4454    -310505.48449   -236199.27747                  22764028.2344
        47.5004         33.5004
  21560776.6564    -205748.93449   -158073.99247                  21560773.6844
        51.2504         39.0004
  23231406.3284    -864904.73049   -651794.34047                  23231406.7074
        45.2504         28.0004
 04  6 28 19  7 20.0000000  0  7G 3G14G15G18G19G22G25
  23356344.9064     -19670.02749    -19217.68447                  23356346.7544
        44.0004         26.7504
  20362562.9384    -322775.27049   -247255.56248                  20362560.8444
        51.0004         42.0004
  20644849.2974    -100780.64149    -79856.03148                  20644848.6454
        51.2504         39.7504
  23537326.7584     -50847.46949    -42694.11347                  23537326.1524
        42.0004         26.0004
  22760203.7974    -330611.34049   -251866.19947                  22760202.0354
        47.0004         33.2504
  21558204.6954    -219264.94549   -168605.96547                  21558201.6294
        50.5004         38.7504
  23220494.6644    -922244.60249   -696474.73447                  23220494.9734
        44.7504         27.7504
 04  6 28 19  7 30.0000000  0  7G 3G14G15G18G19G22G25
  23356152.9534     -20677.85249    -20003.03547                  23356154.8484
        44.0004         26.0004
  20358828.0314    -342403.82049   -262550.54348                  20358825.6414
        50.0004         42.0004
  20643748.3594    -106567.44149    -84365.23448                  20643747.2934
        51.2504         40.5004
  23536742.0314     -53917.34449    -45086.24647                  23536741.8444
        43.2504         27.7504
  22756392.5704    -350642.45749   -267474.88347                  22756390.3404
        48.0004         33.0004
  21555638.8524    -232749.30949   -179113.27047                  21555635.4964
        50.2504         39.0004
  23209589.3594    -979553.32849   -741130.87147                  23209589.7274
        45.7504         28.5004
 04  6 28 19  7 40.0000000  0  7G 3G14G15G18G19G22G25
  23355968.5004     -21649.04749    -20759.83647                  23355969.3794
        44.5004         27.0004
  20355104.4064    -361970.77749   -277797.53148                  20355102.1724
        50.5004         41.5004
  20642660.0704    -112286.66049    -88821.77348                  20642658.9964
        51.5004         40.2504
  23536162.7894     -56963.76249    -47460.10247                  23536161.8834
        42.2504         26.7504
  22752594.3284    -370601.98849   -283027.77047                  22752592.0394
        47.5004         33.2504
  21553078.1334    -246205.23449   -189598.41447                  21553075.0704
        50.5004         38.7504
  23198688.7194   -1036833.85249   -785765.02747                  23198689.7274
        45.2504         28.7504
 04  6 28 19  7 50.0000000  0  7G 3G14G15G18G19G22G25
  23355791.0704     -22584.53949    -21488.82047                  23355791.7544
        44.7504         27.0004
  20351392.5164    -381477.09449   -292997.26248                  20351390.3914
        50.5004         42.2504
  20641584.3754    -117939.08249    -93226.27348                  20641583.3484
        51.0004         40.2504
  23535587.2344     -59987.44949    -49816.23447                  23535586.4304
        43.7504         27.0004
  22748809.4694    -390490.71949   -298525.50047                  22748807.6994
        46.7504         33.0004
  21550523.0784    -259633.44549   -200061.96147                  21550519.5354
        51.7504         39.0004
  23187793.9224   -1094086.95749   -830377.80947                  23187794.3984
        44.7504         28.2504
 04  6 28 19  8  0.0000000  0  7G 3G14G15G18G19G22G25
  23355619.1174     -23486.69549    -22191.80947                  23355620.1724
        44.7504         28.7504
  20347691.6334    -400925.10249   -308151.55948                  20347689.1884
        50.2504         42.2504
  20640520.8444    -123527.10249    -97580.58648                  20640520.1524
        51.0004         40.0004
  23535015.6174     -62990.78149    -52156.51247                  23535014.5984
        43.7504         26.5004
  22745037.6254    -410310.97749   -313969.87547                  22745035.6054
        46.5004         33.5004
  21547972.3594    -273036.21149   -210505.67647                  21547969.1024
        51.2504         39.0004
  23176904.0944   -1151314.80149   -874970.90647                  23176904.1094
        46.0004         28.2504
 04  6 28 19  8 10.0000000  0  7G 3G14G15G18G19G22G25
  23355454.3204     -24356.62549    -22869.70747                  23355454.7624
        45.5004         28.5004
  20344001.8524    -420315.81649   -323261.21548                  20343999.3594
        50.5004         42.2504
  20639469.7034    -129051.64849   -101885.44148                  20639468.4454
        51.0004         40.5004
  23534448.0704     -65974.78149    -54481.73447                  23534447.3874
        43.0004         26.7504
  22741278.5234    -430063.78149   -329361.67647                  22741277.0904
        47.0004         33.5004
  21545426.7034    -286414.43049   -220930.27347                  21545423.2734
        50.5004         39.0004
  23166018.2894   -1208518.21949   -919544.98047                  23166019.1294
        45.2504         29.2504
 04  6 28 19  8 20.0000000  0  7G 3G14G15G18G19G22G25
  23355293.2504     -25199.30949    -23526.35947                  23355294.5634
        45.5004         28.2504
  20340321.7584    -439654.18449   -338330.07448                  20340319.3674
        50.5004         41.7504
  20638429.9384    -134517.67249   -106144.68448                  20638428.5944
        51.5004         40.5004
  23533882.9384     -68944.20749    -56795.58247                  23533882.0904
        41.2504         26.0004
  22737532.0474    -449754.06649   -344704.77347                  22737530.2584
        47.2504         33.7504
  21542884.5234    -299773.01649   -231339.56647                  21542880.9694
        50.5004         39.0004
  23155136.8834   -1265701.97349   -964103.73047                  23155137.3404
        45.0004         30.2504
 04  6 28 19  8 30.0000000  0  7G 3G14G15G18G19G22G25
  23355138.2734     -26013.84449    -24161.09447                  23355139.7274
        44.5004         27.5004
  20336652.2344    -458939.20749   -353357.36348                  20336649.6954
        50.7504         41.7504
  20637401.0704    -139924.18049   -110357.56248                  20637399.9384
        52.0004         40.0004
  23533320.9224     -71898.09049    -59097.32047                  23533320.0554
        43.7504         26.0004
  22733797.4224    -469380.80949   -359998.34047                  22733795.5164
        47.5004         32.7504
  21540346.4064    -313110.93749   -241732.75047                  21540343.0124
        51.2504         38.2504
  23144259.2344   -1322864.88749  -1008646.23847                  23144259.3404
        45.5004         29.0004
 04  6 28 19  8 40.0000000  0  7G 3G14G15G18G19G22G25
  23354989.5234     -26794.96949    -24769.78147                  23354991.0204
        45.5004         28.0004
  20332993.4384    -478165.61349   -368338.98448                  20332990.9384
        50.2504         42.0004
  20636384.4454    -145265.85549   -114519.92648                  20636383.3524
        51.2504         40.2504
  23532762.8754     -74830.94149    -61382.70747                  23532761.7304
        42.7504         25.7504
  22730075.8444    -488938.71149   -375238.28547                  22730073.6914
        47.0004         33.7504
  21537813.2894    -326422.86749   -252105.69947                  21537809.9614
        51.2504         39.0004
  23133386.3204   -1380001.55149  -1053168.29747                  23133386.3714
        45.5004         28.7504
 04  6 28 19 12 30.0000000  4  2
2.000000                                                    COMMENT
OBSERVATION ABORTED; BAD DATA                               COMMENT
 04  6 28 19 12 30.0000000  0  7G 3G14G15G18G19G22G25
  23353252.2734     -35928.66449    -31887.56647                  23353254.2384
        45.2504         30.0004
  20251870.5084    -904468.30949   -700523.00448                  20251868.0274
        48.5004         41.5004
  20616367.1094    -250458.23449   -196488.32847                  20616365.9844
        51.0004         39.2504
  23521001.8364    -136635.70749   -109542.69946                  23521000.4064
        41.0004         24.5004
  22648040.4534    -920036.26249   -711158.72747                  22648038.6294
        43.0004         32.5004
  21480891.1334    -625552.19549   -485193.66447                  21480887.5664
        50.5004         38.5004
  22884708.9384   -2686808.89849  -2071459.30947                  22884709.3054
        46.0004         29.7504
 04  6 28 19 12 40.0000000  0  7G 3G14G15G18G19G22G25
  23353256.4064     -35903.46149    -31867.94547                  23353258.6994
        45.2504         29.5004
  20248483.0784    -922268.59049   -714393.35948                  20248481.0274
        49.5004         42.0004
  20615651.3204    -254218.35549   -199418.30547                  20615650.5434
        50.5004         39.2504
  23520547.3594    -139027.43049   -111406.39546                  23520544.8954
        42.5004         23.0004
  22644636.4384    -937920.94549   -725094.86347                  22644635.0354
        43.0004         32.7504
  21478483.8204    -638201.66849   -495050.40247                  21478480.6884
        51.0004         38.5004
  22873968.7814   -2743248.16449  -2115437.94147                  22873969.3094
        46.2504         30.7504
 04  6 28 19 12 50.0000000  0  7G 3G14G15G18G19G22G25
  23353269.5634     -35838.65649    -31817.48047                  23353270.6684
        45.0004         29.0004
  20245108.4844    -940002.82449   -728212.25848                  20245105.8524
        49.2504         42.0004
  20614949.8444    -257905.69549   -202291.57047                  20614948.9774
        51.0004         39.0004
  23520097.6484    -141389.12549   -113246.69546                  23520096.2234
        42.7504         24.5004
  22641248.2584    -955729.21949   -738971.45347                  22641246.2974
        43.5004         33.0004
  21476083.4064    -650816.09449   -504879.83647                  21476080.1254
        50.5004         38.5004
  22863236.1414   -2799649.68749  -2159387.16847                  22863236.2504
        46.5004         30.0004
 04  6 28 19 13  0.0000000  0  7G 3G14G15G18G19G22G25
  23353289.0164     -35735.27749    -31736.95347                  23353290.5394
        45.2504         28.5004
  20241745.8524    -957672.02749   -741980.46948                  20241743.8054
        49.5004         41.7504
  20614262.0394    -261521.23849   -205108.89147                  20614260.4384
        51.0004         39.0004
  23519653.3834    -143721.79349   -115064.38346                  23519652.3204
        42.5004         23.2504
  22637873.5084    -973462.05149   -752789.26247                  22637872.0394
        44.0004         33.5004
  21473689.4454    -663396.39149   -514682.66847                  21473685.9804
        50.7504         38.7504
  22852510.1484   -2856014.30149  -2203307.62547                  22852510.1174
        46.5004         29.7504
 04  6 28 19 13 10.0000000  0  7G 3G14G15G18G19G22G25
  23353315.9614     -35591.94549    -31625.28947                  23353317.3984
        44.7504         27.7504
  20238396.4924    -975274.77049   -755696.89148                  20238394.2464
        49.7504         42.0004
  20613587.9614    -265063.55149   -207869.14547                  20613586.4534
        50.7504         39.0004
  23519215.8984    -146023.95749   -116858.29346                  23519214.2384
        40.5004         24.5004
  22634513.6024    -991118.07849   -766547.21947                  22634512.1054
        44.0004         32.7504
  21471302.1644    -675941.17649   -524457.82847                  21471298.7544
        50.7504         38.5004
  22841791.3134   -2912340.53149  -2247198.16847                  22841792.0124
        46.5004         29.7504
 04  6 28 19 13 20.0000000  0  7G 3G14G15G18G19G22G25
  23353351.8674     -35405.57049    -31480.09847                  23353352.8164
        45.2504         28.0004
  20235060.1564    -992807.91449   -769359.08648                  20235057.7074
        49.7504         42.0004
  20612928.2504    -268529.43049   -210569.83647                  20612926.8714
        50.7504         39.2504
  23518783.7344    -148292.36749   -118625.89546                  23518782.4224
        42.2504         25.5004
  22631169.1724   -1008694.09449   -780242.82047                  22631167.6564
        44.5004         33.0004
  21468922.3524    -688447.05149   -534202.66847                  21468919.2114
        50.2504         38.5004
  22831081.0164   -2968625.00449  -2291056.18047                  22831081.2234
        46.5004         30.0004
 04  6 28 19 13 30.0000000  0  7G 3G14G15G18G19G22G25
  23353395.8674     -35173.32049    -31299.14847                  23353397.1254
        45.2504         28.7504
  20231737.6954   -1010268.55949   -782964.79348                  20231735.0984
        49.5004         42.2504
  20612283.9694    -271915.97349   -213208.71948                  20612282.4414
        51.0004         39.5004
  23518358.8284    -150524.04749   -120364.89146                  23518358.0004
        42.5004         24.7504
  22627840.1954   -1026187.15649   -793873.80147                  22627838.6684
        43.7504         32.7504
  21466550.4224    -700911.12549   -543914.94147                  21466547.3984
        50.5004         38.5004
  22820379.0784   -3024864.61349  -2334879.23847                  22820379.4614
        46.7504         30.7504
 04  6 28 19 13 40.0000000  0  7G 3G14G15G18G19G22G25
  23353449.2344     -34896.80149    -31083.71147                  23353450.1054
        45.2504         28.0004
  20228428.2894   -1027658.30549   -796515.24248                  20228426.0234
        50.0004         42.0004
  20611654.1884    -275224.78949   -215787.02747                  20611652.9144
        51.0004         39.0004
  23517941.4224    -152720.50849   -122076.43747                  23517939.9694
        43.0004         26.5004
  22624527.9224   -1043598.77749   -807441.32047                  22624525.7974
        44.5004         33.2504
  21464186.6174    -713334.89149   -553595.80947                  21464183.5354
        50.7504         38.5004
  22809684.9614   -3081060.80549  -2378668.46547                  22809685.3284
        45.2504         30.0004
 04  6 28 19 13 50.0000000  0  8G 3G11G14G15G18G19G22G25
  23353509.7424     -34574.71549    -30832.75447                  23353510.8834
        44.7504         27.5004
  24215603.3364    -128740.78159    -85234.65256                  24215602.3954
        39.2504         21.2504
  20225132.8754   -1044975.75449   -810009.37148                  20225130.4224
        49.7504         42.0004
  20611039.6564    -278454.43449   -218303.64848                  20611038.3364
        50.5004         40.0004
  23517530.1254    -154880.31249   -123759.43446                  23517528.9924
        42.5004         23.7504
  22621229.8134   -1060927.67249   -820944.36347                  22621228.0004
        45.2504         32.2504
  21461830.0314    -725716.98049   -563244.19947                  21461826.6844
        50.2504         38.0004
  22798999.6094   -3137211.98049  -2422422.62147                  22799000.3954
        45.0004         30.7504
 04  6 28 19 14  0.0000000  0  8G 3G11G14G15G18G19G22G25
  23353580.5004     -34207.37149    -30546.54747                  23353581.3914
        44.7504         29.0004
  24204872.2194    -185137.41049   -129180.00846                  24204870.6804
        38.7504         20.7504
  20221851.3444   -1062221.18749   -823447.37548                  20221848.9964
        49.7504         42.0004
  20610439.9454    -281605.14849   -220758.77048                  20610438.7894
        51.0004         39.5004
  23517126.0704    -157003.62549   -125413.97746                  23517125.3444
        41.2504         25.0004
  22617947.1334   -1078174.05949   -834383.12947                  22617945.9304
        44.7504         33.2504
  21459481.8524    -738057.50049   -572860.19547                  21459478.8014
        50.2504         38.5004
  22788323.2734   -3193318.26649  -2466141.78147                  22788323.6094
        45.5004         30.5004
 04  6 28 19 14 10.0000000  0  8G 3G11G14G15G18G19G22G25
  23353658.4694     -33796.18049    -30226.17647                  23353659.2384
        45.7504         28.5004
  24194147.7584    -241493.19949   -173093.55146                  24194146.2424
        40.0004         20.0004
  20218583.2734   -1079395.87949   -836830.25848                  20218580.6604
        50.5004         41.5004
  20609855.1414    -284678.30149   -223153.43748                  20609853.9924
        50.2504         39.7504
  23516729.2274    -159091.68449   -127041.05546                  23516728.0594
        42.5004         22.5004
  22614681.9534   -1095339.31649   -847758.66447                  22614679.4734
        45.5004         33.0004
  21457141.3444    -750357.69949   -582444.78147                  21457138.0554
        50.0004         38.2504
  22777655.0004   -3249380.83249  -2509826.88347                  22777655.1214
        46.0004         30.5004
 04  6 28 19 14 20.0000000  0  8G 3G11G14G15G18G19G22G25
  23353743.9774     -33344.46149    -29874.20747                  23353745.8014
        44.7504         28.0004
  24183430.1724    -297811.47749   -216977.91446                  24183429.3444
        39.7504         20.0004
  20215327.4224   -1096503.18049   -850160.62148                  20215325.2894
        50.0004         41.5004
  20609284.5634    -287677.17249   -225490.23448                  20609283.5314
        50.2504         39.7504
  23516337.2974    -161147.81249   -128643.24246                  23516336.7504
        41.2504         23.7504
  22611430.1094   -1112426.77049   -861073.57847                  22611428.2464
        44.5004         33.5004
  21454807.9614    -762620.91049   -592000.52347                  21454804.8054
        49.5004         38.2504
  22766994.1484   -3305402.86749  -2553480.39547                  22766994.4734
        46.5004         30.2504
 04  6 28 19 14 30.0000000  0  8G 3G11G14G15G18G19G22G25
  23353837.9844     -32853.69549    -29491.80547                  23353838.6684
        45.2504         27.7504
  24172720.6254    -354093.43749   -260833.96546                  24172718.9884
        40.7504         19.5004
  20212084.7664   -1113544.46149   -863439.54348                  20212082.6564
        49.7504         41.5004
  20608727.8834    -290603.11349   -227770.20747                  20608726.7504
        51.0004         39.0004
  23515952.4224    -163173.34049   -130221.59846                  23515950.8404
        42.0004         25.2504
  22608193.5084   -1129437.82049   -874328.94947                  22608190.7934
        45.2504         33.5004
  21452481.0864    -774848.44949   -601528.48047                  21452477.4694
        50.2504         38.5004
  22756341.4144   -3361385.63349  -2597103.31647                  22756341.3364
        46.7504         30.5004
 04  6 28 19 14 40.0000000  0  8G 3G11G14G15G18G19G22G25
  23353938.0784     -32324.02749    -29079.09847                  23353939.6604
        45.5004         28.5004
  24162017.3134    -410339.00049   -304661.66046                  24162015.6644
        41.5004         20.5004
  20208854.2584   -1130519.96949   -876667.22348                  20208852.1294
        49.2504         41.0004
  20608184.9694    -293456.22749   -229993.42247                  20608183.8634
        47.7504         39.2504
  23515572.4384    -165168.29749   -131776.12946                  23515571.4144
        42.0004         25.0004
  22604970.5784   -1146372.55549   -887524.85947                  22604968.4654
        44.5004         33.0004
  21450160.5944    -787040.35249   -611028.68047                  21450157.3364
        48.0004         38.5004
  22745695.3674   -3417329.14849  -2640695.65247                  22745695.5864
        46.5004         30.7504
 04  6 28 19 14 50.0000000  0  8G 3G11G14G15G18G19G22G25
  23354045.9694     -31756.32049    -28636.76647                  23354047.9144
        43.7504         27.2504
  24151321.1254    -466548.91049   -348461.59846                  24151318.9654
        40.5004         19.2504
  20205636.2424   -1147430.50849   -889844.26648                  20205633.8914
        49.2504         41.5004
  20607655.6174    -296237.34449   -232160.54348                  20607654.5594
        50.0004         39.7504
  23515198.1884    -167133.50449   -133307.48046                  23515197.2774
        43.0004         25.5004
  22601761.8754   -1163231.80949   -900661.94947                  22601760.0164
        44.2504         34.0004
  21447847.5084    -799197.42249   -620501.73047                  21447844.1094
        49.7504         38.5004
  22735056.7734   -3473234.04349  -2684257.88747                  22735057.4024
        46.7504         31.0004
 04  6 28 19 15  0.0000000  0  8G 3G11G14G15G18G19G22G25
  23354160.0944     -31154.80149    -28168.06647                  23354162.3874
        43.0004         27.5004
  24140630.7194    -522727.24249   -392236.90646                  24140627.7854
        41.0004         19.2504
  20202430.0704   -1164280.19549   -902973.90248                  20202427.8324
        49.5004         41.7504
  20607139.4614    -298950.60549   -234274.78948                  20607138.5274
        50.2504         39.5004
  23514829.6724    -169072.99249   -134818.81246                  23514828.3094
        43.2504         25.0004
  22598567.8284   -1180019.69549   -913743.43047                  22598565.1644
        44.2504         33.2504
  21445539.7894    -811323.76649   -629950.84047                  21445536.4304
        49.7504         38.0004
  22724425.0784   -3529104.27049  -2727793.10947                  22724425.6804
        46.5004         31.2504
 04  6 28 19 15 10.0000000  0  8G 3G11G14G15G18G19G22G25
  23354281.3674     -30519.46949    -27673.03547                  23354283.1804
        44.0004         26.7504
  24129946.2344    -578873.74649   -435987.39846                  24129943.0354
        40.0004         19.0004
  20199235.1254   -1181068.98449   -916056.08648                  20199232.9224
        48.7504         41.7504
  20606635.9144    -301595.94549   -236336.11348                  20606635.1214
        49.5004         39.7504
  23514464.9534    -170986.66849   -136310.00046                  23514464.0634
        41.5004         25.5004
  22595386.4534   -1196736.17249   -926769.27047                  22595384.9064
        44.0004         33.0004
  21443238.1644    -823419.19149   -639375.85247                  21443234.8094
        48.7504         38.7504
  22713799.9694   -3584939.63349  -2771301.16047                  22713800.4184
        46.2504         31.2504
 04  6 28 19 15 19.9990000  0  8G 3G11G14G15G18G19G22G25
  23354408.4954     -29853.02349    -27153.76247                  23354409.7614
        44.2504         28.0004
  24119268.3084    -634985.19549   -479710.60246                  24119265.3084
        41.0004         19.7504
  20196051.8394   -1197797.76649   -929091.50448                  20196049.5934
        48.5004         42.2504
  20606145.1754    -304175.67249   -238346.29748                  20606144.1404
        48.5004         39.7504
  23514105.8704    -172876.77749   -137782.82846                  23514103.8784
        40.5004         24.0004
  22592218.5264   -1213382.16849   -939740.18747                  22592216.5854
        42.5004         33.7504
  21440942.0734    -835484.98849   -648777.78147                  21440938.7414
        48.2504         38.2504
  22703182.2844   -3640736.89149  -2814779.53547                  22703182.3944
        46.2504         31.5004
 04  6 28 19 15 29.9990000  0  8G 3G11G14G15G18G19G22G25
  23354542.1904     -29147.87549    -26604.32047                  23354543.2964
        43.5004         27.0004
  24108596.2764    -691065.28549   -523409.34846                  24108593.6054
        38.7504         19.5004
  20192880.4564   -1214462.44149   -942076.96948                  20192877.9874
        47.7504         41.5004
  20605668.1514    -306682.80149   -240299.90648                  20605667.0154
        49.0004         39.5004
  23513752.1984    -174736.24649   -139231.76646                  23513750.0194
        42.2504         24.5004
  22589065.3314   -1229953.55949   -952652.96947                  22589063.5654
        43.2504         33.5004
  21438653.0034    -847516.07849   -658152.66447                  21438649.3904
        49.2504         38.0004
  22692571.1204   -3696499.64149  -2858231.00847                  22692571.2614
        46.5004         31.2504
 04  6 28 19 15 39.9990000  0  8G 3G11G14G15G18G19G22G25
  23354680.3704     -28421.97749    -26038.72746                  23354682.0264
        43.5004         25.0004
  24097928.3864    -747125.90249   -567092.91046                  24097926.6674
        38.5004         19.5004
  20189718.3474   -1231079.07449   -955024.99648                  20189716.4294
        48.2504         41.7504
  20605201.1984    -309134.78549   -242210.55947                  20605200.4524
        48.5004         39.0004
  23513400.7844    -176582.59449   -140670.52046                  23513399.1404
        41.5004         25.5004
  22585923.0894   -1246466.46549   -965520.17647                  22585921.2304
        42.2504         32.5004
  21436366.8784    -859528.94149   -667513.33247                  21436363.4404
        49.2504         38.5004
  22681964.0734   -3752239.85549  -2901664.91847                  22681964.3944
        46.2504         29.7504
 04  6 28 19 15 49.9990000  0  8G 3G11G14G15G18G19G22G25
  23354825.1054     -27664.96949    -25448.86346                  23354825.9564
        44.2504         25.5004
  24087266.0264    -803156.63349   -610753.20346                  24087264.3554
        38.0004         19.2504
  20186567.4334   -1247637.32849   -967927.53548                  20186565.4214
        47.5004         41.0004
  20604747.1364    -311521.31249   -244070.19947                  20604746.3864
        48.7504         38.5004
  23513053.6834    -178405.38349   -142090.89846                  23513051.6984
        39.0004         25.5004
  22582794.1514   -1262910.43749   -978333.67647                  22582792.1404
        42.0004         32.5004
  21434086.4564    -871513.17249   -676851.69947                  21434083.0264
        48.5004         37.5004
  22671363.6054   -3807946.99249  -2945073.05947                  22671363.0584
        45.7504         30.0004
 04  6 28 19 15 59.9990000  0  8G 3G11G14G15G18G19G22G25
  23354976.4874     -26870.94549    -24830.17247                  23354977.2924
        45.0004         26.2504
  24076611.3554    -859151.38349   -654385.43046                  24076608.8084
        38.0004         20.5004
  20183428.6674   -1264131.22749   -980779.94148                  20183426.5224
        47.0004         41.2504
  20604306.3784    -313836.33249   -245874.12947                  20604306.1284
        46.5004         39.2504
  23512712.5654    -180198.57449   -143488.20346                  23512710.7024
        40.5004         22.7504
  22579678.8084   -1279279.53949   -991088.83647                  22579677.6444
        42.0004         33.5004
  21431812.1364    -883462.68749   -686163.02047                  21431808.7924
        47.0004         38.7504
  22660769.8624   -3863614.93449  -2988450.66447                  22660770.0694
        45.0004         30.2504
 04  6 28 19 16  9.9990000  0  8G 3G11G14G15G18G19G22G25
  23355134.2304     -26041.89549    -24184.18046                  23355135.3004
        44.0004         25.5004
  24065961.5194    -915112.04349   -697991.09446                  24065960.6164
        37.5004         20.5004
  20180302.1444   -1280562.73049   -993583.70748                  20180300.0464
        47.2504         41.2504
  20603879.3394    -316081.82049   -247623.86747                  20603878.5894
        48.5004         38.5004
  23512376.6514    -181963.96149   -144863.86346                  23512375.1904
        42.0004         24.0004
  22576578.4174   -1295575.76649  -1003787.20347                  22576576.1634
        41.5004         33.0004
  21429544.5654    -895379.39149   -695448.76647                  21429541.4644
        49.0004         38.2504
  22650183.4094   -3919245.37949  -3031799.03947                  22650183.9684
        45.5004         31.0004
 04  6 28 19 16 19.9990000  0  8G 3G11G14G15G18G19G22G25
  23355298.7144     -25179.24649    -23512.01647                  23355299.4174
        44.2504         27.7504
  24055318.3704    -971039.69149   -741571.07046                  24055317.4604
        36.0004         21.5004
  20177187.0654   -1296933.24649  -1006339.96948                  20177184.7264
        46.2504         41.7504
  20603465.1444    -318259.18049   -249320.53147                  20603464.2534
        47.2504         39.0004
  23512045.5424    -183702.91849   -146218.92246                  23512044.1014
        42.5004         25.5004
  22573490.8624   -1311800.44549  -1016429.82847                  22573488.5584
        41.5004         33.2504
  21427282.6904    -907264.64549   -704710.01247                  21427279.6514
        47.5004         37.7504
  22639604.0504   -3974839.71549  -3075119.28147                  22639604.7024
        45.5004         31.5004
 04  6 28 19 16 29.9990000  0  8G 3G11G14G15G18G19G22G25
  23355469.0264     -24282.10249    -22812.97347                  23355470.3234
        44.5004         26.5004
  24044682.8624   -1026933.27749   -785124.45746                  24044681.4374
        36.7504         21.0004
  20174083.5654   -1313241.75449  -1019047.89548                  20174081.4954
        46.5004         41.2504
  20603063.9094    -320367.40249   -250963.30547                  20603062.8864
        50.2504         38.5004
  23511719.7614    -185414.50049   -147552.63746                  23511719.0034
        42.5004         24.7504
  22570416.9334   -1327952.68749  -1029015.99647                  22570415.5034
        41.5004         33.2504
  21425027.3864    -919117.35249   -713945.88747                  21425024.4294
        49.7504         37.5004
  22629032.4334   -4030396.80949  -3118410.51247                  22629032.5264
        45.0004         31.2504
 04  6 28 19 16 39.9990000  0  8G 3G11G14G15G18G19G22G25
  23355645.7454     -23351.94949    -22088.19147                  23355647.0114
        45.0004         26.0004
  24034052.3084   -1082794.21549   -828652.42246                  24034051.7024
        37.7504         20.5004
  20170991.9874   -1329489.80149  -1031708.71548                  20170989.4174
        47.2504         41.2504
  20602675.7694    -322408.05949   -252553.43447                  20602674.8944
        50.0004         38.5004
  23511399.2224    -187100.06649   -148866.09446                  23511398.3864
        41.7504         22.5004
  22567357.1674   -1344033.97749  -1041546.89847                  22567355.5264
        42.0004         33.2504
  21422778.1204    -930938.97749   -723157.54747                  21422774.6834
        49.7504         38.0004
  22618466.7614   -4085917.96149  -3161673.73047                  22618467.7614
        44.5004         31.5004
 04  6 28 19 16 49.9990000  0  8G 3G11G14G15G18G19G22G25
  23355829.3624     -22388.10549    -21337.19147                  23355830.5814
        44.5004         25.7504
  24023428.9334   -1138621.45749   -872154.14546                  24023428.0694
        40.2504         21.5004
  20167911.4724   -1345676.60949  -1044321.82048                  20167909.4524
        47.7504         41.7504
  20602300.4804    -324380.23449   -254090.21147                  20602299.6444
        49.0004         39.0004
  23511083.8944    -188758.87149   -150158.70346                  23511082.6244
        42.0004         24.5004
  22564310.1124   -1360043.50849  -1054021.86747                  22564308.1084
        43.5004         33.7504
  21420534.5734    -942728.62149   -732344.28547                  21420531.3044
        49.0004         38.0004
  22607908.8784   -4141402.15649  -3204908.14847                  22607909.1164
        45.0004         31.0004
 04  6 28 19 16 59.9990000  0  8G 3G11G14G15G18G19G22G25
  23356018.5424     -21395.10949    -20563.44947                  23356019.1324
        45.2504         26.7504
  24012811.7844   -1194419.34849   -915632.99646                  24012810.1124
        40.7504         22.5004
  20164842.0894   -1361806.69949  -1056890.72348                  20164840.1944
        48.0004         41.7504
  20601937.4564    -326288.36349   -255577.08247                  20601936.3514
        50.7504         38.7504
  23510771.8234    -190395.19549   -151433.76646                  23510771.3154
        42.0004         23.0004
  22561276.9724   -1375985.67249  -1066444.34047                  22561274.4134
        43.2504         33.0004
  21418295.8704    -954490.72749   -741509.57047                  21418292.6404
        50.0004         38.2504
  22597356.4484   -4196853.72349  -3248117.13347                  22597356.9804
        44.5004         31.0004
 04  6 28 19 17  9.9990000  0  8G 3G11G14G15G18G19G22G25
  23356212.3154     -20373.56249    -19767.48847                  23356213.4374
        44.5004         26.2504
  24002199.2614   -1250188.34449   -959089.34446                  24002197.3314
        42.0004         22.5004
  20161783.2454   -1377880.60249  -1069415.85548                  20161781.2454
        48.7504         42.0004
  20601586.0654    -328133.16449   -257014.60247                  20601585.0814
        50.0004         39.2504
  23510465.1594    -192009.69149   -152691.84046                  23510464.0734
        42.2504         25.2504
  22558255.6834   -1391861.19549  -1078814.90247                  22558253.9764
        44.5004         33.7504
  21416063.1054    -966225.87549   -750653.85547                  21416059.7224
        50.7504         38.5004
  22586810.0504   -4252273.22749  -3291301.14547                  22586810.3234
        45.0004         31.0004
 04  6 28 19 17 19.9990000  0  8G 3G11G14G15G18G19G22G25
  23356412.6754     -19323.37949    -18949.18447                  23356413.8784
        45.2504         26.0004
  23991592.3864   -1305928.19549  -1002522.99646                  23991590.4404
        41.7504         22.5004
  20158735.1834   -1393898.26249  -1081897.15248                  20158732.9834
        49.2504         41.5004
  20601247.2374    -329914.40649   -258402.59447                  20601246.2144
        50.7504         38.5004
  23510162.0034    -193601.98049   -153932.62146                  23510161.0424
        41.5004         23.0004
  22555247.5114   -1407669.90249  -1091133.38747                  22555245.7144
        45.0004         33.5004
  21413834.9094    -977933.79749   -759776.91447                  21413831.6404
        50.0004         38.2504
  22576270.6984   -4307660.31649  -3334459.89547                  22576270.9914
        44.5004         31.2504
 04  6 28 19 17 29.9990000  0  8G 3G11G14G15G18G19G22G25
  23356617.0894     -18248.09449    -18111.30947                  23356618.3394
        44.2504         26.2504
  23980990.0504   -1361642.21949  -1045936.52346                  23980989.0974
        41.5004         24.7504
  20155697.0034   -1409863.10549  -1094337.29348                  20155694.9094
        49.2504         41.7504
  20600919.8704    -331635.54349   -259743.75447                  20600918.1674
        51.0004         39.0004
  23509863.1054    -195175.62149   -155158.84847                  23509861.6204
        41.2504         25.7504
  22552251.3084   -1423415.29349  -1103402.53147                  22552249.4334
        46.0004         33.5004
  21411611.7454    -989617.84049   -768881.37547                  21411608.5624
        50.2504         38.2504
  22565736.3394   -4363018.23849  -3377595.93047                  22565736.3274
        44.0004         31.5004
 04  6 28 19 17 39.9990000  0  8G 3G11G14G15G18G19G22G25
  23356827.6284     -17142.32049    -17249.71547                  23356829.0624
        45.0004         26.7504
  23970394.5034   -1417324.93049  -1089325.63746                  23970392.6674
        40.7504         24.7504
  20152669.9804   -1425769.69149  -1106732.03948                  20152668.0734
        49.7504         41.7504
  20600604.9804    -333291.12149   -261033.83647                  20600603.5894
        50.2504         38.5004
  23509568.0264    -196725.00049   -156366.16846                  23509566.5154
        42.7504         23.2504
  22549268.0654   -1439091.86749  -1115618.06647                  22549266.2924
        46.0004         33.0004
  21409393.9254   -1001272.60249   -777963.01247                  21409390.7024
        50.5004         38.2504
  22555208.2064   -4418341.41849  -3420704.87147                  22555208.5774
        43.0004         30.5004
 04  6 28 19 17 49.9990000  0  8G 3G11G14G15G18G19G22G25
  23357044.0734     -16006.32849    -16364.54747                  23357045.4994
        45.5004         27.0004
  23959803.6514   -1472976.30549  -1132690.32046                  23959802.3434
        40.7504         23.0004
  20149654.2614   -1441618.21549  -1119081.54348                  20149652.5544
        49.7504         41.7504
  20600302.2454    -334881.31249   -262272.95347                  20600300.7924
        51.2504         38.5004
  23509277.2844    -198250.33649   -157554.77046                  23509276.0934
        42.0004         24.5004
  22546297.9644   -1454699.84049  -1127780.13347                  22546295.9444
        46.0004         33.0004
  21407181.7064   -1012898.13349   -787021.87547                  21407178.6164
        50.0004         37.7504
  22544687.6444   -4473629.85549  -3463786.75447                  22544687.7804
        43.2504         30.7504
 04  6 28 19 17 59.9990000  0  8G 3G11G14G15G18G19G22G25
  23357265.4874     -14843.67249    -15458.59447                  23357266.7334
        45.5004         26.2504
  23949218.9334   -1528599.71949  -1176033.22346                  23949217.3004
        41.2504         24.5004
  20146648.7534   -1457412.19949  -1131388.54348                  20146646.8624
        50.7504         42.2504
  20600011.4644    -336409.65249   -263463.87947                  20600010.3154
        50.2504         38.5004
  23508991.1984    -199754.99249   -158727.24647                  23508989.8044
        42.5004         26.0004
  22543340.5734   -1470242.71149  -1139891.47347                  22543338.1944
        46.5004         33.0004
  21404974.1054   -1024497.95349   -796060.70347                  21404971.2844
        50.5004         37.5004
  22534172.3084   -4528886.91049  -3506844.17647                  22534172.8124
        43.5004         30.2504
 04  6 28 19 18  9.9990000  0  8G 3G11G14G15G18G19G22G25
  23357491.3154     -13656.29349    -14533.37946                  23357491.9374
        45.5004         25.5004
  23938639.2304   -1584197.01249  -1219355.74246                  23938637.9684
        41.2504         24.5004
  20143653.3154   -1473153.56649  -1143654.54348                  20143651.3824
        49.7504         42.0004
  20599731.9804    -337878.07849   -264608.11747                  20599730.5264
        50.7504         37.7504
  23508707.6834    -201240.89149   -159885.10246                  23508707.2924
        40.0004         25.0004
  22540394.1754   -1485722.48049  -1151953.63347                  22540392.5894
        46.2504         32.0004
  21402771.4174   -1036073.93749   -805080.95747                  21402768.3704
        50.0004         38.0004
  22523663.2534   -4584114.40249  -3549878.56647                  22523663.2844
        43.7504         30.0004
 04  6 28 19 18 19.9990000  0  8G 3G11G14G15G18G19G22G25
  23357721.5504     -12445.64849    -13590.04747                  23357722.4214
        44.0004         26.5004
  23928063.9724   -1639769.45349  -1262658.92646                  23928062.6754
        41.7504         23.7504
  20140667.4254   -1488843.76649  -1155880.68448                  20140665.5464
        50.0004         42.0004
  20599463.7144    -339287.90649   -265706.70347                  20599462.1474
        50.5004         39.0004
  23508428.7694    -202709.37549   -161029.39546                  23508427.9804
        42.0004         25.0004
  22537460.7694   -1501140.52349  -1163967.71147                  22537458.3354
        46.0004         31.7504
  21400573.1364   -1047627.34849   -814083.62547                  21400569.4484
        49.7504         38.2504
  22513159.1284   -4639313.56249  -3592890.88347                  22513159.5544
        45.2504         31.0004
 04  6 28 19 18 29.9990000  0  8G 3G11G14G15G18G19G22G25
  23357955.4014     -11213.59049    -12630.02747                  23357956.8514
        43.7504         26.2504
  23917493.1364   -1695318.46549  -1305943.84446                  23917492.6084
        42.7504         23.7504
  20137691.2374   -1504484.51649  -1168068.28148                  20137689.2804
        49.5004         42.2504
  20599206.0814    -340640.84449   -266760.94947                  20599205.0464
        49.7504         38.0004
  23508152.7144    -204161.96149   -162161.29746                  23508151.0624
        43.0004         25.2504
  22534538.1054   -1516498.51249  -1175934.99247                  22534535.9834
        46.0004         31.5004
  21398378.3004   -1059159.87549   -823070.01247                  21398375.3554
        49.2504         37.7504
  22502660.3474   -4694485.91049  -3635882.29747                  22502659.9054
        44.2504         31.2504
 04  6 28 19 18 39.9990000  0  8G 3G11G14G15G18G19G22G25
  23358193.4954      -9961.53149    -11654.41847                  23358195.3864
        43.7504         26.5004
  23906926.5974   -1750845.44549  -1349211.59846                  23906926.2414
        41.5004         24.2504
  20134724.4404   -1520077.28549  -1180218.49648                  20134722.0774
        49.7504         42.0004
  20598958.9254    -341938.37549   -267772.03147                  20598958.4724
        50.0004         38.7504
  23507878.6754    -205600.23049   -163282.04346                  23507877.6054
        42.5004         24.5004
  22531626.7614   -1531797.92249  -1187856.62147                  22531623.7574
        46.2504         32.0004
  21396187.4484   -1070672.87149   -832041.18747                  21396184.2144
        49.5004         38.0004
  22492165.8624   -4749632.78149  -3678853.87147                  22492165.8864
        45.7504         32.0004
 04  6 28 19 18 49.9990000  0  8G 3G11G14G15G18G19G22G25
  23358435.8394      -8692.50449    -10665.60247                  23358437.3554
        44.2504         26.7504
  23896364.0114   -1806353.18749  -1392464.37146                  23896363.0264
        42.7504         24.5004
  20131765.3314   -1535624.95349  -1192333.57048                  20131763.5544
        49.7504         42.5004
  20598722.3084    -343183.42649   -268742.21147                  20598721.2494
        50.0004         38.7504
  23507607.4014    -207026.90249   -164393.77046                  23507605.9764
        43.5004         22.7504
  22528726.2454   -1547041.70349  -1199734.91047                  22528723.4724
        46.5004         32.2504
  21393999.8474   -1082169.18449   -840999.35947                  21393996.2694
        49.2504         37.7504
  22481676.3784   -4804756.90649  -3721807.71147                  22481676.2064
        45.2504         31.5004
 04  6 28 19 18 59.9990000  0  8G 3G11G14G15G18G19G22G25
  23358680.1444      -7406.12549     -9663.25446                  23358682.2024
        43.7504         25.5004
  23885805.5344   -1861841.21949  -1435701.80546                  23885803.7374
        41.5004         24.0004
  20128815.4404   -1551127.17649  -1204413.22348                  20128813.4094
        49.5004         42.0004
  20598495.5584    -344375.63749   -269671.21547                  20598494.3434
        49.5004         38.2504
  23507337.9334    -208441.64549   -165496.18046                  23507336.7844
        40.7504         22.5004
  22525835.6984   -1562229.50049  -1211569.56247                  22525833.5694
        46.5004         33.0004
  21391815.5734   -1093648.36349   -849944.18447                  21391812.2184
        48.2504         38.0004
  22471190.6284   -4859857.76649  -3764743.42647                  22471191.2804
        45.5004         31.2504
 04  6 28 19 19  9.9990000  0  8G 3G11G14G15G18G19G22G25
  23358928.9484      -6100.44549     -8645.87547                  23358931.0114
        44.2504         26.5004
  23875250.1594   -1917307.28149  -1478922.08246                  23875248.8904
        42.0004         24.5004
  20125874.4954   -1566581.93049  -1216455.89148                  20125872.3664
        49.2504         41.7504
  20598279.3554    -345512.94549   -270557.44147                  20598278.1984
        48.5004         38.7504
  23507071.5654    -209842.25049   -166587.57446                  23507070.3124
        41.2504         24.2504
  22522956.5114   -1577359.31249  -1223359.03147                  22522954.4174
        46.0004         32.5004
  21389634.7374   -1105108.35549   -858874.05147                  21389631.0424
        48.0004         37.5004
  22460709.8394   -4914933.23849  -3807659.36347                  22460710.5264
        45.0004         31.0004
 04  6 28 19 19 19.9990000  0  8G 3G11G14G15G18G19G22G25
  23359181.9954      -4775.12149     -7613.18047                  23359183.1594
        44.2504         27.2504
  23864700.1284   -1972750.90649  -1522124.90246                  23864697.9444
        42.5004         22.7504
  20122942.9874   -1581988.86349  -1228461.30148                  20122940.7654
        50.2504         42.2504
  20598073.1284    -346595.01649   -271400.61747                  20598072.4294
        47.7504         39.2504
  23506807.4644    -211228.37149   -167667.69546                  23506807.1054
        41.5004         24.7504
  22520088.8004   -1592430.75849  -1235103.03947                  22520086.4054
        46.0004         31.7504
  21387457.6594   -1116548.74649   -867788.64547                  21387453.9804
        47.5004         36.7504
  22450234.7534   -4969982.74649  -3850555.05947                  22450234.5894
        45.2504         31.7504
 04  6 28 19 19 29.9990000  0  8G 3G11G14G15G18G19G22G25
  23359437.0814      -3431.12149     -6565.94147                  23359439.1514
        44.5004         27.5004
  23854153.1834   -2028172.80549  -1565310.78146                  23854151.3474
        40.7504         22.2504
  20120019.9804   -1597348.85249  -1240430.12548                  20120017.7024
        49.5004         42.2504
  20597877.7454    -347622.66449   -272201.39547                  20597876.7304
        48.2504         39.0004
  23506546.5424    -212600.87149   -168737.20346                  23506546.4644
        42.2504         25.0004
  22517232.0584   -1607444.75449  -1246802.27747                  22517229.2764
        46.5004         32.5004
  21385284.2764   -1127970.33249   -876688.59447                  21385280.5624
        47.0004         37.5004
  22439763.7844   -5025006.96949  -3893431.05547                  22439764.1904
        45.0004         31.5004
 04  6 28 19 19 39.9990000  0  8G 3G11G14G15G18G19G22G25
  23359696.8084      -2068.22749     -5503.96547                  23359698.3744
        45.5004         27.5004
  23843610.7454   -2083572.58649  -1608479.41846                  23843609.2764
        40.2504         22.0004
  20117106.1124   -1612661.64849  -1252362.17648                  20117103.8124
        49.2504         42.7504
  20597692.4874    -348595.64549   -272959.57847                  20597691.4724
        50.2504         39.2504
  23506288.1754    -213959.35949   -169795.77746                  23506287.4054
        42.5004         24.5004
  22514385.7374   -1622400.97749  -1258456.48847                  22514383.0114
        47.0004         32.5004
  21383114.1834   -1139372.80149   -885573.63347                  21383110.6794
        49.2504         37.7504
  22429298.2064   -5080005.46149  -3936286.98847                  22429298.3664
        44.5004         31.7504
 04  6 28 19 19 49.9990000  0  8G 3G11G14G15G18G19G22G25
  23359959.1754       -689.21549     -4429.39847                  23359960.4294
        45.0004         28.0004
  23833072.3234   -2138952.85249  -1651632.87146                  23833070.9524
        41.0004         22.5004
  20114200.4564   -1627929.98849  -1264259.58648                  20114198.3194
        50.0004         42.5004
  20597517.2224    -349516.64549   -273677.25847                  20597516.1204
        50.0004         39.0004
  23506032.1754    -215306.47349   -170845.51646                  23506031.0194
        43.5004         24.0004
  22511550.1284   -1637302.19549  -1270067.83247                  22511547.6514
        47.0004         32.5004
  21380947.8704   -1150758.73449   -894445.80147                  21380943.9444
        49.2504         37.5004
  22418836.3864   -5134980.80549  -3979124.89847                  22418836.5694
        45.0004         31.7504
 04  6 28 19 19 59.9990000  0  8G 3G11G14G15G18G19G22G25
  23360225.6444        711.84449     -3337.70347                  23360227.1754
        45.5004         28.5004
  23822538.3394   -2194307.43049  -1694766.27346                  23822537.8394
        40.7504         24.2504
  20111304.6124   -1643147.92649  -1276117.72748                  20111302.7414
        49.7504         42.2504
  20597353.5034    -350379.68449   -274349.75848                  20597352.3394
        47.7504         39.5004
  23505779.2224    -216636.06649   -171881.57846                  23505778.5304
        42.2504         24.5004
  22508725.5974   -1652142.33249  -1281631.58647                  22508723.9214
        46.7504         32.7504
  21378785.1514   -1162122.12149   -903300.39847                  21378781.7144
        46.5004         38.0004
  22408380.5504   -5189926.84849  -4021939.97347                  22408380.7184
        44.5004         31.7504
 04  6 28 19 20  9.9990000  0  8G 3G11G14G15G18G19G22G25
  23360493.8394       2118.71949     -2241.45347                  23360495.1054
        45.7504         27.7504
  23812006.8084   -2249652.39849  -1737892.20347                  23812006.6244
        42.0004         25.7504
  20108415.1364   -1658331.62949  -1287949.18048                  20108413.1084
        49.5004         42.0004
  20597196.9954    -351200.96949   -274989.72747                  20597195.4764
        49.5004         39.0004
  23505526.4094    -217964.48049   -172916.73046                  23505525.1444
        40.5004         25.0004
  22505910.0264   -1666937.72749  -1293160.48447                  22505908.1794
        46.7504         32.0004
  21376623.9874   -1173479.10249   -912149.98847                  21376620.5464
        48.5004         37.2504
  22397927.6514   -5244859.57049  -4064744.67247                  22397927.5114
        44.2504         32.0004
 04  6 28 19 20 19.9990000  0  8G 3G11G14G15G18G19G22G25
  23360763.5814       3537.94149     -1135.59447                  23360764.8274
        44.7504         27.7504
  23801478.6834   -2304980.99249  -1781005.36746                  23801477.8784
        41.7504         24.5004
  20105533.5264   -1673474.44549  -1299748.77748                  20105531.2374
        50.0004         42.7504
  20597049.9874    -351973.82449   -275591.97347                  20597049.0264
        49.0004         38.5004
  23505275.2224    -219284.96549   -173945.70346                  23505274.2534
        40.0004         24.0004
  22503104.8784   -1681681.69949  -1304649.30547                  22503102.9294
        46.5004         32.7504
  21374465.6284   -1184822.93749   -920989.35247                  21374462.0974
        49.2504         37.5004
  22387477.6674   -5299772.28949  -4107533.79347                  22387477.7964
        43.7504         31.5004
 04  6 28 19 20 29.9990000  0  8G 3G11G14G15G18G19G22G25
  23361036.0194       4972.86749       -17.48847                  23361038.1244
        45.0004         27.0004
  23790953.4404   -2360289.80149  -1824103.11346                  23790952.9374
        39.5004         22.5004
  20102660.5814   -1688573.09449  -1311513.95748                  20102658.2764
        50.0004         42.2504
  20596912.3784    -352694.92649   -276153.87147                  20596911.4374
        49.5004         38.7504
  23505026.2614    -220594.01649   -174965.76246                  23505024.3154
        41.7504         24.5004
  22500309.6364   -1696370.91049  -1316095.45347                  22500307.5194
        46.2504         32.5004
  21372310.0504   -1196150.26649   -929815.84047                  21372306.5694
        48.5004         37.5004
  22377032.5344   -5354661.41449  -4150304.51247                  22377032.3624
        44.0004         31.0004
 04  6 28 19 20 39.9990000  0  8G 3G11G14G15G18G19G22G25
  23361312.0654       6423.92249      1113.18847                  23361314.0544
        44.7504         26.7504
  23780431.6984   -2415578.12149  -1867184.90646                  23780432.2104
        40.7504         25.5004
  20099795.8624   -1703627.07049  -1323244.32848                  20099793.7334
        49.0004         41.5004
  20596785.1054    -353363.75849   -276675.05547                  20596784.1054
        49.0004         38.0004
  23504779.4804    -221891.16049   -175976.54346                  23504777.7454
        41.5004         22.5004
  22497525.0264   -1711004.88349  -1327498.56647                  22497522.7374
        46.2504         32.5004
  21370157.7224   -1207460.50849   -938629.02347                  21370154.3084
        48.7504         37.2504
  22366592.2614   -5409526.34849  -4193056.39147                  22366592.1124
        43.7504         30.7504
 04  6 28 19 20 49.9990000  0  8G 3G11G14G15G18G19G22G25
  23361591.3314       7888.94549      2254.73047                  23361593.1164
        44.5004         26.5004
  23769914.5034   -2470847.93049  -1910252.25846                  23769914.6834
        39.5004         24.0004
  20096939.0814   -1718638.41849  -1334941.48848                  20096936.8394
        49.7504         42.2504
  20596667.7764    -353982.35549   -277157.09847                  20596666.2924
        50.0004         38.7504
  23504534.1364    -223178.45749   -176979.64846                  23504532.4254
        41.0004         24.7504
  22494749.8944   -1725585.71549  -1338860.27047                  22494748.2024
        46.2504         33.5004
  21368008.2064   -1218755.71549   -947430.49247                  21368004.7844
        50.0004         37.7504
  22356156.0114   -5464368.98849  -4235790.89847                  22356156.0734
        44.5004         31.0004
 04  6 28 19 20 59.9990000  0  8G 3G11G14G15G18G19G22G25
  23361873.3864       9367.34049      3406.69547                  23361873.8394
        45.5004         27.0004
  23759400.3314   -2526099.59449  -1953305.44946                  23759400.4524
        39.2504         22.2504
  20094090.9254   -1733607.80549  -1346605.95348                  20094088.7304
        49.2504         42.5004
  20596559.2844    -354551.34049   -277600.47747                  20596558.2374
        50.2504         38.7504
  23504290.7534    -224456.39849   -177975.46946                  23504289.4954
        41.5004         22.2504
  22491985.9014   -1740114.03149  -1350181.05547                  22491983.6944
        45.2504         33.2504
  21365861.6284   -1230036.40649   -956220.64847                  21365858.3314
        49.2504         37.7504
  22345724.2924   -5519189.79349  -4278508.38747                  22345723.8194
        42.5004         30.2504
 04  6 28 19 21  9.9990000  0  8G 3G11G14G15G18G19G22G25
  23362156.9174      10860.18449      4569.93047                  23362157.9874
        45.2504         27.0004
  23748889.5114   -2581331.82849  -1996343.55146                  23748889.8084
        38.7504         22.5004
  20091250.2924   -1748534.05149  -1358236.79748                  20091248.4954
        49.5004         42.5004
  20596460.9174    -355069.58649   -278004.32448                  20596459.7374
        50.7504         39.5004
  23504049.7224    -225723.78149   -178963.07446                  23504047.8554
        42.2504         22.2504
  22489230.6514   -1754588.66449  -1361460.01247                  22489229.5114
        46.2504         33.0004
  21363718.0264   -1241301.35249   -964998.53147                  21363714.4684
        49.7504         37.7504
  22335296.1514   -5573987.48449  -4321207.87147                  22335295.8554
        43.7504         32.2504
 04  6 28 19 21 19.9990000  0  8G 3G11G14G15G18G19G22G25
  23362443.1444      12366.65249      5743.76647                  23362444.8904
        44.7504         27.0004
  23738382.6514   -2636545.26249  -2039366.94146                  23738382.8584
        39.2504         22.7504
  20088417.9954   -1763417.94549  -1369834.64548                  20088415.9804
        49.5004         42.2504
  20596371.7304    -355537.83249   -278369.19548                  20596370.3154
        50.5004         39.5004
  23503810.3474    -226981.25449   -179942.94946                  23503809.5584
        42.2504         22.7504
  22486487.0504   -1769010.41449  -1372697.75047                  22486485.2844
        46.5004         32.5004
  21361577.1674   -1252551.23849   -973764.68747                  21361573.7144
        50.5004         37.5004
  22324872.7534   -5628762.67649  -4363889.82447                  22324872.6474
        44.7504         32.2504
 04  6 28 19 21 29.9990000  0  8G 3G11G14G15G18G19G22G25
  23362732.1834      13886.11749      6927.74647                  23362733.9134
        44.0004         26.0004
  23727879.7064   -2691740.39149  -2082376.12146                  23727880.0304
        39.0004         22.5004
  20085593.4564   -1778260.13749  -1381399.98048                  20085591.4604
        50.0004         42.2504
  20596292.0264    -355956.64549   -278695.55547                  20596290.8584
        51.2504         39.0004
  23503572.4404    -228229.45349   -180915.58246                  23503571.4524
        41.7504         22.7504
  22483752.5584   -1783379.98449  -1383894.83247                  22483750.9404
        45.2504         33.0004
  21359439.1204   -1263786.60949   -982519.52747                  21359435.9054
        50.0004         37.5004
  22314453.4014   -5683515.80949  -4406554.58647                  22314453.4604
        44.0004         32.2504
 04  6 28 19 21 39.9990000  0  8G 3G11G14G15G18G19G22G25
  23363024.9174      15420.01249      8122.96147                  23363025.9724
        44.2504         28.0004
  23717381.0734   -2746915.65649  -2125369.81246                  23717380.3354
        39.5004         24.2504
  20082777.5814   -1793059.17649  -1392931.71148                  20082775.4764
        49.7504         42.0004
  20596222.0194    -356324.59849   -278982.28547                  20596220.5774
        50.7504         38.5004
  23503337.5194    -229466.76249   -181879.73446                  23503336.2064
        40.0004         22.0004
  22481028.1364   -1797695.81649  -1395050.03147                  22481026.4054
        46.2504         32.5004
  21357304.2224   -1275005.92249   -991261.85547                  21357300.9404
        49.7504         37.5004
  22304038.8864   -5738245.22349  -4449200.87547                  22304038.8234
        44.7504         32.2504
 04  6 28 19 21 49.9990000  0  8G 3G11G14G15G18G19G22G25
  23363318.9484      16968.31349      9329.40647                  23363320.3044
        44.0004         27.2504
  23706885.6514   -2802070.75849  -2168347.77346                  23706884.4994
        40.2504         22.5004
  20079969.9014   -1807814.88749  -1404429.67648                  20079967.5694
        50.5004         42.0004
  20596161.5504    -356641.58249   -279229.29347                  20596160.4334
        51.0004         37.7504
  23503103.6984    -230692.96549   -182835.24646                  23503102.7374
        41.5004         23.5004
  22478313.9254   -1811957.73849  -1406163.23847                  22478312.8354
        45.7504         32.0004
  21355172.4174   -1286208.96149   -999991.50447                  21355169.0584
        49.2504         37.2504
  22293628.9484   -5792950.57049  -4491828.39847                  22293628.8194
        45.0004         31.7504
 04  6 28 19 21 59.9990000  0  8G 3G11G14G15G18G19G22G25
  23363616.9804      18530.67249     10546.78947                  23363618.2304
        44.7504         27.0004
  23696392.7694   -2857205.94149  -2211310.23846                  23696391.9954
        40.5004         23.0004
  20077169.7534   -1822527.62149  -1415894.14148                  20077167.4484
        50.5004         42.5004
  20596110.9954    -356907.90249   -279436.83647                  20596109.5544
        51.0004         38.5004
  23502872.6284    -231908.30149   -183782.27746                  23502871.6284
        41.0004         22.2504
  22475610.2694   -1826166.13349  -1417234.74247                  22475608.9524
        46.5004         33.0004
  21353043.2454   -1297396.04749  -1008708.72347                  21353040.0934
        49.7504         37.5004
  22283223.0424   -5847632.12549  -4534437.38347                  22283223.0154
        45.2504         32.0004
 04  6 28 19 22  9.9990000  0  8G 3G11G14G15G18G19G22G25
  23363917.1904      20108.87149     11776.53947                  23363918.0894
        44.7504         27.0004
  23685904.9404   -2912319.12549  -2254255.55946                  23685904.5814
        39.5004         22.7504
  20074378.6444   -1837195.61349  -1427323.74648                  20074376.2064
        50.0004         42.0004
  20596070.1984    -357121.70349   -279603.44947                  20596069.1874
        50.7504         38.2504
  23502643.9564    -233110.99649   -184719.45746                  23502643.2374
        40.7504         22.5004
  22472917.2304   -1840319.16449  -1428263.09047                  22472915.4404
        46.0004         32.5004
  21350918.2764   -1308565.27349  -1017412.02047                  21350914.6324
        50.0004         37.2504
  22272822.6284   -5902287.94949  -4577026.31247                  22272822.6634
        44.5004         31.5004
 04  6 28 19 22 19.9990000  0  8G 3G11G14G15G18G19G22G25
  23364220.0654      21701.09049     13017.18847                  23364221.0154
        45.0004         27.7504
  23675421.6514   -2967411.96149  -2297185.02746                  23675420.3194
        41.7504         22.0004
  20071595.7374   -1851820.61349  -1438719.85248                  20071593.4254
        50.2504         42.5004
  20596039.3944    -357284.75049   -279730.50847                  20596038.2844
        50.5004         38.2504
  23502417.0194    -234302.59849   -185648.02346                  23502416.8624
        42.2504         22.7504
  22470233.9254   -1854418.57049  -1439249.66447                  22470232.0224
        46.0004         32.0004
  21348795.7534   -1319718.27749  -1026102.68747                  21348792.6634
        50.2504         37.2504
  22262426.4484   -5956919.49649  -4619596.33647                  22262426.6514
        45.0004         31.7504
 04  6 28 19 22 29.9990000  0  8G 3G11G14G15G18G19G22G25
  23364525.6204      23306.75049     14268.33647                  23364526.7184
        44.7504         29.0004
  23664941.2694   -3022484.82849  -2340098.93046                  23664940.6874
        41.2504         22.7504
  20068820.6124   -1866403.15649  -1450082.87148                  20068818.5424
        49.7504         42.5004
  20596017.4254    -357397.63349   -279818.48847                  20596016.4604
        51.0004         38.5004
  23502192.2844    -235483.77349   -186568.45346                  23502191.8434
        39.2504         22.7504
  22467561.2924   -1868464.99249  -1450194.93447                  22467558.7104
        46.2504         32.5004
  21346676.1904   -1330855.59049  -1034781.12547                  21346672.9214
        49.5004         37.0004
  22252034.7304   -6011527.28549  -4662147.84847                  22252034.6554
        44.5004         31.7504
 04  6 28 19 22 39.9990000  0  8G 3G11G14G15G18G19G22G25
  23364833.3944      24924.90649     15529.21947                  23364834.7844
        44.7504         27.5004
  23654465.2064   -3077538.35249  -2382997.74646                  23654465.2614
        41.5004         22.5004
  20066053.6834   -1880944.10949  -1461413.49248                  20066051.2764
        50.0004         41.7504
  20596005.4724    -357461.20749   -279868.03547                  20596005.0584
        51.0004         38.7504
  23501969.5894    -236655.22749   -187481.28546                  23501968.7144
        40.7504         24.2504
  22464898.7144   -1882459.34049  -1461099.62547                  22464895.7494
        46.7504         32.0004
  21344560.1364   -1341978.00449  -1043447.94547                  21344556.2884
        50.0004         37.2504
  22241647.6204   -6066112.03549  -4704681.38347                  22241648.2064
        44.7504         31.5004
 04  6 28 19 22 49.9990000  0  8G 3G11G14G15G18G19G22G25
  23365143.5584      26554.62949     16799.09047                  23365144.4014
        44.7504         27.5004
  23643991.8704   -3132573.55949  -2425882.30146                  23643992.1444
        42.0004         23.0004
  20063294.0424   -1895444.46549  -1472712.47748                  20063292.0894
        49.7504         42.2504
  20596002.6514    -357476.39849   -279879.88347                  20596002.0384
        51.0004         38.7504
  23501748.9644    -237817.89149   -188387.27046                  23501747.7104
        42.5004         22.5004
  22462245.1984   -1896402.45349  -1471964.40247                  22462242.2334
        46.5004         32.0004
  21342445.9404   -1353086.38749  -1052103.83647                  21342442.5464
        50.0004         37.5004
  22231265.2304   -6120674.44949  -4747197.53547                  22231264.6634
        46.0004         32.5004
 04  6 28 19 22 59.9990000  0  8G 3G11G14G15G18G19G22G25
  23365455.5584      28194.70349     18077.05547                  23365456.5074
        44.2504         27.0004
  23633522.9874   -3187591.17249  -2468753.12946                  23633522.2264
        41.5004         22.5004
  20060542.6284   -1909905.21949  -1483980.59448                  20060540.4334
        49.0004         41.7504
  20596009.1284    -357444.25449   -279854.84847                  20596007.9684
        51.0004         38.7504
  23501528.9254    -238972.68449   -189287.14546                  23501528.0264
        42.7504         24.0004
  22459601.3154   -1910295.47349  -1482790.14147                  22459598.6754
        46.2504         31.7504
  21340334.5424   -1364181.72749  -1060749.55547                  21340331.2144
        50.2504         37.5004
  22220885.9724   -6175215.47749  -4789697.00447                  22220886.0344
        44.5004         31.7504
 04  6 28 19 23  9.9990000  0  8G 3G11G14G15G18G19G22G25
  23365770.4404      29848.51249     19365.70747                  23365771.4484
        44.2504         27.0004
  23623057.4254   -3242587.94949  -2511607.75446                  23623056.7494
        41.5004         22.0004
  20057798.6594   -1924323.17249  -1495215.37548                  20057796.3704
        48.2504         42.0004
  20596025.1364    -357361.45749   -279790.34447                  20596023.6794
        50.7504         38.7504
  23501311.4954    -240116.22749   -190178.25446                  23501310.5344
        41.5004         25.0004
  22456967.4334   -1924135.11349  -1493574.30147                  22456964.6904
        43.2504         32.0004
  21338226.7614   -1375260.66049  -1069382.50047                  21338222.9214
        49.7504         37.5004
  22210512.3944   -6229731.60249  -4832177.07847                  22210512.2334
        44.7504         31.2504
 04  6 28 19 23 19.9990000  0  8G 3G11G14G15G18G19G22G25
  23366088.7064      31519.01649     20667.36347                  23366089.1014
        44.7504         28.0004
  23612595.6984   -3297560.67649  -2554443.61746                  23612595.4954
        41.5004         22.2504
  20055063.9174   -1938695.31249  -1506414.44948                  20055062.0694
        48.0004         42.0004
  20596050.9804    -357224.93049   -279683.98047                  20596049.7614
        51.0004         39.0004
  23501096.8784    -241245.49249   -191058.21946                  23501095.8274
        42.0004         25.5004
  22454345.1444   -1937918.39149  -1504314.52347                  22454342.4724
        43.2504         32.5004
  21336121.7374   -1386320.08649  -1078000.25047                  21336118.4134
        49.5004         37.5004
  22200143.3154   -6284219.60549  -4874635.24247                  22200143.2374
        46.0004         31.7504
 04  6 28 19 23 29.9990000  0  8G 3G11G14G15G18G19G22G25
  23366408.7454      33203.30149     21979.76647                  23366410.2574
        44.5004         27.0004
  23602139.0194   -3352511.84849  -2597262.69146                  23602138.7924
        41.2504         22.5004
  20052337.1674   -1953024.31649  -1517579.92248                  20052334.8974
        49.5004         42.2504
  20596086.6514    -357037.48049   -279537.92247                  20596085.4834
        50.2504         38.7504
  23500883.9874    -242363.10549   -191929.11746                  23500883.0034
        41.7504         24.5004
  22451732.1514   -1951647.99249  -1515012.92647                  22451729.2374
        45.2504         32.5004
  21334020.5584   -1397362.71149  -1086604.89847                  21334016.9054
        50.5004         37.5004
  22189779.5344   -6338682.12949  -4917073.55547                  22189779.3354
        45.5004         32.0004
 04  6 28 19 23 39.9990000  0  8G 3G11G14G15G18G19G22G25
  23366731.7374      34901.63749     23303.11347                  23366733.8004
        44.5004         26.0004
  23591686.6834   -3407441.16449  -2640064.75046                  23591686.1244
        40.2504         23.7504
  20049618.5654   -1967310.00849  -1528711.62548                  20049616.5424
        49.0004         42.2504
  20596131.9954    -356798.92649   -279352.04747                  20596130.9054
        51.0004         39.0004
  23500673.5584    -243468.79349   -192790.70746                  23500672.5654
        41.5004         22.5004
  22449129.5894   -1965323.82449  -1525669.43047                  22449126.7924
        47.2504         33.0004
  21331922.2454   -1408388.27349  -1095196.26647                  21331919.1124
        49.7504         37.7504
  22179420.6444   -6393118.78949  -4959491.71547                  22179419.9214
        44.5004         31.5004
 04  6 28 19 23 49.9990000  0  8G 3G11G14G15G18G19G22G25
  23367057.6754      36613.43049     24636.96147                  23367059.7414
        44.5004         27.0004
  23581237.7064   -3462349.02349  -2682850.08246                  23581237.4644
        40.0004         22.5004
  20046908.2064   -1981552.84849  -1539809.94548                  20046906.2534
        49.5004         42.5004
  20596187.0034    -356509.68049   -279126.67647                  20596185.9254
        51.0004         39.0004
  23500465.2224    -244563.01249   -193643.37546                  23500464.2304
        42.2504         22.2504
  22446537.4954   -1978946.21149  -1536284.28547                  22446534.9994
        47.0004         31.7504
  21329827.2694   -1419397.14149  -1103774.60547                  21329824.0344
        50.5004         37.5004
  22169066.4564   -6447529.87149  -5001889.93447                  22169066.0034
        43.7504         32.7504
 04  6 28 19 23 59.9990000  0  8G 3G11G14G15G18G19G22G25
  23367386.5734      38340.58649     25982.77047                  23367388.3784
        44.0004         27.0004
  23570793.7924   -3517233.18449  -2725616.93446                  23570793.0934
        41.7504         21.5004
  20044206.7374   -1995750.95349  -1550873.40648                  20044204.3474
        50.0004         42.0004
  20596251.8944    -356167.76649   -278860.26247                  20596250.9214
        51.0004         38.5004
  23500259.5814    -245643.80949   -194485.58646                  23500258.5734
        42.2504         22.0004
  22443955.4874   -1992513.35549  -1546856.08647                  22443953.7654
        47.0004         32.5004
  21327735.9804   -1430387.22749  -1112338.30947                  21327732.9214
        50.5004         37.2504
  22158717.5974   -6501913.26649  -5044266.57847                  22158717.4804
        45.7504         31.7504
 04  6 28 19 24  9.9990000  0  8G 3G11G14G15G18G19G22G25
  23367717.7144      40081.47749     27339.28947                  23367720.0934
        44.5004         26.2504
  23560354.0814   -3572095.21549  -2768366.53946                  23560353.2724
        43.2504         20.7504
  20041513.0194   -2009905.93449  -1561903.26248                  20041511.0344
        50.0004         42.0004
  20596326.6204    -355774.85549   -278554.11347                  20596325.5624
        51.0004         38.5004
  23500056.0814    -246712.69949   -195318.50046                  23500055.0464
        41.2504         22.7504
  22441384.5114   -2006026.81649  -1557386.06647                  22441382.2804
        48.0004         33.0004
  21325648.0584   -1441360.18749  -1120888.68047                  21325644.7724
        49.5004         37.2504
  22148373.4724   -6556270.46549  -5086622.82047                  22148373.2334
        45.5004         31.0004
 04  6 28 19 24 19.9990000  0  8G 3G11G14G15G18G19G22G25
  23368051.3154      41834.85549     28705.51647                  23368053.7304
        43.5004         27.2504
  23549918.5264   -3626936.11349  -2811099.70346                  23549917.3744
        43.2504         22.2504
  20038827.2304   -2024018.99249  -1572900.44948                  20038825.0694
        49.7504         42.2504
  20596411.0114    -355332.09049   -278209.11747                  20596410.1554
        51.0004         39.0004
  23499854.4174    -247770.73449   -196142.96146                  23499853.6444
        41.5004         22.7504
  22438822.4874   -2019487.84849  -1567875.19147                  22438820.9094
        47.5004         32.0004
  21323562.9954   -1452317.10949  -1129426.55147                  21323559.6944
        50.2504         37.5004
  22138034.7454   -6610602.45749  -5128959.41847                  22138034.4804
        46.0004         31.5004
 04  6 28 19 24 29.9990000  0  8G 3G11G14G15G18G19G22G25
  23368387.3394      43600.80149     30081.53947                  23368389.4444
        43.7504         26.0004
  23539486.0504   -3681755.59849  -2853816.19146                  23539485.3124
        43.7504         22.7504
  20036149.6754   -2038089.93749  -1583864.84048                  20036147.5694
        50.0004         42.0004
  20596504.7144    -354839.35249   -277825.17647                  20596503.8234
        50.2504         39.0004
  23499655.6514    -248817.71949   -196958.82046                  23499654.1204
        42.0004         22.7504
  22436271.0504   -2032896.32049  -1578323.35947                  22436269.6674
        47.0004         32.0004
  21321481.4804   -1463257.77049  -1137951.75047                  21321477.7224
        49.5004         37.0004
  22127700.4094   -6664908.96149  -5171276.14147                  22127700.1674
        45.5004         31.5004
 04  6 28 19 24 39.9990000  0  8G 3G11G14G15G18G19G22G25
  23368725.6754      45379.55549     31467.57447                  23368727.7924
        43.5004         26.5004
  23529058.6674   -3736553.37549  -2896515.73046                  23529057.4804
        43.7504         22.5004
  20033479.9564   -2052118.62149  -1594796.28948                  20033478.0034
        49.7504         41.5004
  20596607.9804    -354296.36749   -277402.09047                  20596607.0624
        50.5004         38.7504
  23499458.1674    -249853.42649   -197765.89546                  23499457.0504
        40.7504         23.0004
  22433729.7534   -2046251.91049  -1588730.32447                  22433728.5654
        47.2504         33.0004
  21319402.6284   -1474181.93049  -1146464.08647                  21319399.2654
        50.2504         37.7504
  22117370.9014   -6719189.61749  -5213572.74247                  22117370.8124
        46.0004         31.7504
 04  6 28 19 24 49.9990000  0  8G 3G11G14G15G18G19G22G25
  23369066.4564      47170.38749     32862.98847                  23369068.7334
        42.5004         26.7504
  23518635.1514   -3791329.86349  -2939198.69546                  23518633.8624
        43.5004         23.7504
  20030818.4174   -2066105.59449  -1605695.23448                  20030816.2264
        50.0004         41.7504
  20596720.9804    -353703.79349   -276940.35247                  20596719.8124
        50.5004         38.5004
  23499263.7224    -250878.36349   -198564.57846                  23499262.4564
        42.5004         24.2504
  22431198.4874   -2059555.38749  -1599096.68747                  22431196.5384
        47.0004         32.7504
  21317326.6204   -1485090.07049  -1154963.94147                  21317323.3904
        50.0004         37.7504
  22107046.5344   -6773444.89149  -5255849.54747                  22107046.8234
        45.5004         31.5004
 04  6 28 19 24 59.9990000  0  8G 3G11G14G15G18G19G22G25
  23369409.5034      48973.87949     34268.27746                  23369411.6714
        43.0004         25.0004
  23508215.5344   -3846084.30549  -2981864.46546                  23508214.3944
        43.5004         24.5004
  20028164.7924   -2080050.27749  -1616561.21548                  20028162.7184
        49.7504         41.7504
  20596843.2144    -353061.00049   -276439.48847                  20596842.0654
        50.7504         38.7504
  23499070.7844    -251891.85249   -199354.33646                  23499070.1874
        41.2504         22.5004
  22428676.4564   -2072806.11349  -1609421.93447                  22428674.6674
        46.5004         32.2504
  21315254.0974   -1495981.53949  -1163450.81247                  21315250.7304
        49.7504         37.5004
  22096727.0814   -6827674.01249  -5298105.98847                  22096727.1164
        45.0004         31.5004
 04  6 28 19 25  9.9990000  0  8G 3G11G14G15G18G19G22G25
  23369755.2064      50792.89549     35685.65647                  23369758.4134
        42.0004         26.0004
  23497801.4094   -3900813.65649  -3024510.68446                  23497799.8394
        44.0004         22.5004
  20025520.2064   -2093949.75849  -1627391.98048                  20025517.5034
        49.5004         41.5004
  20596975.5034    -352364.99649   -275897.15647                  20596974.1904
        50.5004         38.5004
  23498880.5734    -252890.93049   -200132.85946                  23498879.9564
        41.7504         22.7504
  22426165.4014   -2086001.13349  -1619703.77747                  22426163.9484
        47.0004         32.5004
  21313185.1054   -1506853.30149  -1171922.32447                  21313181.8314
        50.0004         36.7504
  22086413.5194   -6881873.83249  -5340339.59047                  22086413.2694
        45.2504         33.0004
 04  6 28 19 25 19.9990000  0  8G 3G11G14G15G18G19G22G25
  23370104.7924      52626.05549     37114.07046                  23370107.1904
        42.5004         22.7504
  23487390.7614   -3955519.01249  -3067138.23046                  23487389.5344
        44.5004         22.7504
  20022883.1834   -2107805.38349  -1638188.56648                  20022880.7374
        49.7504         41.7504
  20597118.0344    -351617.13749   -275314.41847                  20597117.0264
        50.7504         38.5004
  23498692.9954    -253876.85949   -200901.14846                  23498691.3554
        41.5004         22.5004
  22423665.3704   -2099141.86349  -1629943.32447                  22423663.6594
        46.5004         33.0004
  21311119.9874   -1517706.60249  -1180379.44547                  21311116.6474
        50.2504         36.7504
  22076104.6674   -6936045.62149  -5382551.34047                  22076104.9804
        45.5004         32.0004
 04  6 28 19 25 29.9990000  0  8G 3G11G14G15G18G19G22G25
  23370456.8084      54475.00049     38554.76646                  23370459.5934
        44.0004         25.5004
  23476986.0344   -4010198.60249  -3109745.68046                  23476984.3474
        44.7504         25.2504
  20020255.2224   -2121615.34449  -1648949.58648                  20020253.0774
        49.7504         42.0004
  20597270.5114    -350815.70749   -274689.94547                  20597269.4644
        50.7504         38.5004
  23498507.5194    -254847.76249   -201657.71146                  23498506.7064
        42.2504         22.5004
  22421175.6054   -2112226.45349  -1640139.11747                  22421173.8824
        45.5004         33.5004
  21309058.4404   -1528539.64849  -1188820.79347                  21309055.3084
        50.2504         37.0004
  22065802.0114   -6990187.32849  -5424739.66447                  22065801.9294
        46.0004         32.5004
 04  6 28 19 25 39.9990000  0  8G 3G11G14G15G18G19G22G25
  23370811.5894      56338.75849     40007.01646                  23370813.8274
        43.7504         24.0004
  23466585.7144   -4064853.19549  -3152333.66447                  23466584.6794
        45.0004         26.0004
  20017635.8624   -2135380.73849  -1659675.87148                  20017633.4644
        49.0004         42.0004
  20597433.0894    -349961.73449   -274024.52747                  20597431.9484
        50.5004         38.0004
  23498326.2844    -255804.52749   -202403.27746                  23498324.8394
        39.5004         22.5004
  22418695.9874   -2125255.96149  -1650291.98847                  22418693.6124
        44.2504         33.5004
  21307000.4644   -1539353.38749  -1197247.08647                  21306997.2614
        49.7504         37.0004
  22055504.5654   -7044299.84049  -5466905.24647                  22055504.8394
        45.7504         32.2504
 04  6 28 19 25 49.9990000  0  8G 3G11G14G15G18G19G22G25
  23371169.5814      58219.24649     41472.29346                  23371171.0544
        44.0004         23.5004
  23456189.7924   -4119480.61349  -3194900.47346                  23456189.3394
        45.0004         23.5004
  20015025.4014   -2149099.56249  -1670365.86748                  20015023.3974
        50.7504         42.0004
  20597605.8784    -349053.17249   -273316.57047                  20597604.7224
        50.2504         38.7504
  23498146.9874    -256745.11349   -203136.21546                  23498145.7764
        41.7504         22.5004
  22416227.1754   -2138228.39149  -1660400.37547                  22416225.2804
        46.5004         33.0004
  21304946.9564   -1550145.72749  -1205656.70747                  21304943.7804
        50.0004         37.0004
  22045213.3234   -7098381.02049  -5509046.39547                  22045213.0224
        46.5004         31.7504
 04  6 28 19 25 59.9990000  0  8G 3G11G14G15G18G19G22G25
  23371530.0584      60112.47349     42947.52046                  23371531.0264
        45.0004         24.5004
  23445799.1594   -4174084.91849  -3237449.25447                  23445798.7264
        44.5004         26.5004
  20012422.7224   -2162775.83249  -1681022.70748                  20012420.4914
        50.5004         41.7504
  20597788.3394    -348094.00849   -272569.18447                  20597787.0854
        51.0004         39.0004
  23497970.4874    -257673.44949   -203859.62946                  23497969.1284
        40.5004         22.5004
  22413768.6284   -2151147.78549  -1670467.46147                  22413766.6284
        47.5004         33.0004
  21302896.5814   -1560920.60549  -1214052.72747                  21302893.2534
        49.5004         37.0004
  22034926.9404   -7152434.67649  -5551166.11347                  22034926.8434
        46.5004         32.0004
 04  6 28 19 26  9.9990000  0  8G 3G11G14G15G18G19G22G25
  23371892.6444      62017.99649     44432.34446                  23371893.7764
        44.2504         24.5004
  23435413.5264   -4228666.20749  -3279980.10546                  23435411.6674
        44.7504         25.2504
  20009828.2844   -2176409.87149  -1691646.64148                  20009825.8124
        49.7504         41.5004
  20597980.5424    -347084.59449   -271782.64147                  20597979.3084
        50.2504         38.7504
  23497795.3864    -258589.94949   -204573.79346                  23497794.6794
        40.0004         22.0004
  22411320.7144   -2164014.48449  -1680493.47347                  22411318.4834
        47.0004         32.7504
  21300849.2374   -1571678.31249  -1222435.36347                  21300846.2804
        49.7504         37.2504
  22024646.6124   -7206461.07849  -5593264.58647                  22024645.7724
        45.7504         31.7504
 04  6 28 19 26 19.9990000  0  8G 3G11G14G15G18G19G22G25
  23372257.7224      63937.01249     45927.65246                  23372258.6054
        44.7504         23.7504
  23425030.6444   -4283222.98049  -3322491.85546                  23425030.0734
        44.5004         24.2504
  20007241.7304   -2190000.45749  -1702236.70748                  20007239.7104
        49.7504         41.5004
  20598182.3944    -346023.68449   -270955.96547                  20598181.3044
        50.7504         38.7504
  23497624.3474    -259493.23449   -205277.69146                  23497622.7104
        42.0004         22.0004
  22408881.8784   -2176827.34049  -1690477.52347                  22408879.9804
        47.2504         33.2504
  21298805.6514   -1582417.53149  -1230803.59447                  21298802.8434
        50.0004         37.0004
  22014370.8554   -7260458.73849  -5635340.66047                  22014370.4724
        45.5004         31.2504
 04  6 28 19 26 29.9980000  0  8G 3G11G14G15G18G19G22G25
  23372625.3264      65869.95349     47433.83646                  23372626.8184
        43.2504         24.2504
  23414654.8734   -4337748.94949  -3364979.59846                  23414654.1704
        44.5004         24.5004
  20004664.5534   -2203545.62149  -1712791.38348                  20004662.1864
        49.7504         41.5004
  20598394.1624    -344910.76249   -270088.77347                  20598393.2294
        51.2504         38.5004
  23497455.2724    -260382.46949   -205970.59846                  23497453.4244
        40.5004         22.5004
  22406454.6234   -2189584.37149  -1700418.07847                  22406452.9394
        47.2504         32.5004
  21296766.3114   -1593136.49249  -1239156.03147                  21296762.9794
        50.0004         36.5004
  22004101.9514   -7314421.51649  -5677389.55147                  22004101.7254
        45.2504         32.2504
 04  6 28 19 26 39.9980000  0  8G 3G11G14G15G18G19G22G25
  23372997.4044      67824.73449     48957.01647                  23372999.1274
        41.7504         25.7504
  23404283.4364   -4392247.42249  -3407445.91046                  23404283.4244
        44.2504         24.0004
  20002096.7324   -2217040.50849  -1723306.87948                  20002094.1584
        50.0004         41.0004
  20598617.2564    -343738.03949   -269174.98447                  20598616.2254
        50.2504         38.5004
  23497289.3974    -261250.27749   -206646.85946                  23497289.2874
        41.2504         22.5004
  22404038.3894   -2202280.55949  -1710311.23447                  22404036.4324
        46.0004         32.2504
  21294731.3574   -1603829.68049  -1247488.40247                  21294727.8734
        50.0004         37.0004
  21993839.5684   -7368352.38749  -5719413.58647                  21993838.7054
        46.5004         31.7504
 04  6 28 19 26 49.9980000  0  8G 3G11G14G15G18G19G22G25
  23373370.7874      69787.84049     50486.67646                  23373372.3384
        42.5004         25.5004
  23393916.8114   -4446725.96949  -3449896.69947                  23393916.3344
        44.2504         26.0004
  19999536.2174   -2230497.03549  -1733792.49248                  19999533.7954
        50.0004         42.0004
  20598849.4124    -342518.84849   -268224.97748                  20598848.4324
        50.7504         39.5004
  23497126.1784    -262109.70749   -207316.57846                  23497125.4204
        41.2504         22.0004
  22401631.5684   -2214927.93049  -1720166.33647                  22401630.0294
        46.2504         32.5004
  21292699.0454   -1614509.18449  -1255810.09847                  21292695.7644
        49.5004         37.5004
  21983581.0144   -7422259.11349  -5761418.80547                  21983580.6114
        45.7504         32.5004
 04  6 28 19 26 59.9980000  0  8G 3G11G14G15G18G19G22G25
  23373744.2404      71749.75449     52015.41446                  23373745.7294
        43.0004         25.2504
  23383552.3734   -4501193.93749  -3492339.24246                  23383551.4714
        42.0004         25.5004
  19996980.3894   -2243924.59049  -1744255.52748                  19996978.2794
        50.0004         41.0004
  20599088.3114    -341262.64149   -267246.12947                  20599087.4864
        51.0004         38.5004
  23496962.1544    -262970.02049   -207986.97346                  23496961.7954
        42.0004         21.5004
  22399232.9124   -2227535.96149  -1729990.79347                  22399231.3344
        46.5004         32.0004
  21290667.5144   -1625184.34449  -1264128.41447                  21290664.3504
        50.2504         37.0004
  21973325.5844   -7476150.93449  -5803412.40647                  21973325.2014
        45.5004         32.2504
 04  6 28 19 27  9.9980000  0  8G 3G11G14G15G18G19G22G25
  23374120.9904      73732.18449     53560.12546                  23374123.1504
        43.2504         25.0004
  23373193.4594   -4555629.48849  -3534756.53947                  23373192.4634
        40.7504         26.2504
  19994434.8034   -2257301.55149  -1754679.13348                  19994432.8814
        50.0004         41.5004
  20599338.8574    -339947.71549   -266221.53147                  20599337.9794
        50.7504         38.5004
  23496803.0294    -263809.63749   -208641.25446                  23496802.2174
        42.0004         22.7504
  22396845.2724   -2240082.91849  -1739767.65647                  22396843.3384
        46.5004         32.2504
  21288641.1234   -1635833.45749  -1272426.43047                  21288638.0804
        50.2504         37.7504
  21963077.5294   -7530006.05949  -5845377.41047                  21963076.8854
        44.2504         32.5004
